This is the latest recevied weather packets stored in our database for station/object N1IJV-10. If no packets are shown the sender has not sent any weather packets the latest 10 day(s).
| Time | Temp. | Humidity | Pressure | Rain* | Wind** | Luminosity | Snow |
|---|---|---|---|---|---|---|---|
| 1777685046 | 4.44° C | 74% | 1017.7 hPa | 0 mm | - | 0 W/m² | - |
| 1777684743 | 4.44° C | 74% | 1017.4 hPa | 0 mm | - | 0 W/m² | - |
| 1777684438 | 4.44° C | 74% | 1017.7 hPa | 0 mm | - | 0 W/m² | - |
| 1777684136 | 5° C | 74% | 1017.3 hPa | 0 mm | - | 0 W/m² | - |
| 1777683832 | 5° C | 75% | 1017.2 hPa | 0 mm | - | 0 W/m² | - |
| 1777683529 | 5° C | 75% | 1017.2 hPa | 0 mm | - | 0 W/m² | - |
| 1777683227 | 5.56° C | 74% | 1017.3 hPa | 0 mm | - | 0 W/m² | - |
| 1777682924 | 5.56° C | 74% | 1017.2 hPa | 0 mm | - | 1 W/m² | - |
| 1777682620 | 5.56° C | 74% | 1017.1 hPa | 0 mm | - | 3 W/m² | - |
| 1777682318 | 6.11° C | 74% | 1017.1 hPa | 0 mm | - | 4 W/m² | - |
| 1777682015 | 6.11° C | 74% | 1017 hPa | 0 mm | - | 7 W/m² | - |
| 1777681711 | 6.67° C | 73% | 1016.8 hPa | 0 mm | - | 8 W/m² | - |
| 1777681408 | 6.67° C | 73% | 1016.9 hPa | 0 mm | - | 9 W/m² | - |
| 1777681106 | 6.67° C | 74% | 1016.7 hPa | 0 mm | - | 12 W/m² | - |
| 1777680803 | 7.22° C | 74% | 1016.7 hPa | 0 mm | - | 17 W/m² | - |
| 1777680501 | 7.22° C | 74% | 1016.8 hPa | 0 mm | - | 22 W/m² | - |
| 1777680199 | 7.22° C | 74% | 1016.8 hPa | 0 mm | - | 23 W/m² | - |
| 1777679895 | 7.22° C | 74% | 1016.7 hPa | 0 mm | - | 27 W/m² | - |
| 1777679590 | 7.22° C | 73% | 1016.7 hPa | 0 mm | - | 26 W/m² | - |
| 1777679285 | 7.22° C | 74% | 1016.7 hPa | 0 mm | - | 23 W/m² | - |
| 1777678983 | 7.22° C | 73% | 1016.5 hPa | 0 mm | - | 23 W/m² | - |
| 1777678682 | 7.22° C | 73% | 1016.6 hPa | 0 mm | - | 27 W/m² | - |
| 1777678379 | 7.78° C | 72% | 1016.6 hPa | 0 mm | - | 31 W/m² | - |
| 1777678074 | 7.22° C | 71% | 1016.7 hPa | 0 mm | - | 32 W/m² | - |
| 1777677771 | 7.78° C | 72% | 1016.6 hPa | 0 mm | - | 34 W/m² | - |
* Rain latest hour (hover to see other rain measurements)
** Current wind speed in m/s (hover to see current wind gust speed)